Location: Hartman Creek State Park
(44.3257°N, 89.2134°W)
Time: 12:42:03
(UTC-06:00)

Cosmos 2263 Rocket - Visible Passes

Search period start: 21 December 2014 00:00
Search period end: 31 December 2014 00:00
Orbit: 823 x 850 km, 71.0° (Epoch: 20 December)

Date Brightness Start Highest point End Pass type
(mag) Time Alt. Az. Time Alt. Az. Time Alt. Az.
21 Dec 3.8 03:54:19 31° ENE 03:54:19 31° ENE 03:58:37 10° ESE visible
21 Dec 2.6 05:36:05 35° WNW 05:37:36 43° WSW 05:42:54 10° S visible
21 Dec 2.9 18:40:15 10° S 18:43:59 36° SSE 18:43:59 36° SSE visible
21 Dec 4.7 20:24:40 10° WSW 20:25:45 15° WSW 20:25:45 15° WSW visible
22 Dec 4.2 03:38:55 24° E 03:38:55 24° E 03:41:51 10° ESE visible
22 Dec 2.4 05:20:41 46° W 05:20:59 46° WSW 05:26:23 10° S visible
22 Dec 2.6 18:23:44 10° S 18:28:42 41° ESE 18:28:42 41° ESE visible
22 Dec 4.2 20:07:53 10° WSW 20:10:27 23° W 20:10:27 23° W visible
23 Dec 4.7 03:23:36 17° E 03:23:36 17° E 03:25:04 10° ESE visible
23 Dec 2.6 05:05:22 45° SW 05:05:22 45° SW 05:09:50 10° S visible
23 Dec 2.7 18:07:13 10° S 18:12:18 38° ESE 18:13:20 34° E visible
23 Dec 3.7 19:51:08 10° WSW 19:55:06 32° W 19:55:06 32° W visible
24 Dec 3.2 04:50:06 33° SSW 04:50:06 33° SSW 04:53:17 10° S visible
24 Dec 2.8 17:50:43 10° SSE 17:55:42 35° ESE 17:57:55 25° ENE visible
24 Dec 3.3 19:34:23 10° WSW 19:39:34 38° NW 19:39:40 38° NW visible
25 Dec 3.9 04:34:53 21° S 04:34:53 21° S 04:36:43 10° S visible
25 Dec 2.9 17:34:14 10° SSE 17:39:06 32° ESE 17:42:25 18° NE visible
25 Dec 3.2 19:17:38 10° SW 19:22:54 41° WNW 19:24:10 36° NNW visible
26 Dec 4.5 04:19:42 12° S 04:19:42 12° S 04:20:09 10° S visible
26 Dec 3.1 17:17:45 10° SSE 17:22:31 30° ESE 17:26:50 12° NE visible
26 Dec 3.1 19:00:55 10° SW 19:06:14 44° WNW 19:08:34 29° N visible
27 Dec 3.2 17:01:18 10° SSE 17:05:55 27° ESE 17:10:35 10° NE visible
27 Dec 3.0 18:44:12 10° SW 18:49:34 47° WNW 18:52:54 23° N visible
27 Dec 5.0 20:34:19 10° NW 20:34:38 10° NW 20:34:38 10° NW visible
28 Dec 2.9 18:27:29 10° SW 18:32:55 51° WNW 18:37:09 17° NNE visible
28 Dec 4.9 20:16:51 10° NW 20:18:18 11° NW 20:18:53 11° NNW visible
29 Dec 2.8 18:10:47 10° SW 18:16:16 55° WNW 18:21:21 12° NNE visible
29 Dec 4.8 19:59:38 10° WNW 20:01:34 12° NW 20:03:04 11° NNW visible
30 Dec 2.7 17:54:06 10° SW 17:59:37 59° WNW 18:05:13 10° NNE visible
30 Dec 4.7 19:42:32 10° WNW 19:44:50 12° NW 19:47:09 10° NNW visible
